This is the latest recevied weather packets stored in our database for station/object KB3KAV. If no packets are shown the sender has not sent any weather packets the latest 10 day(s).
| Time | Temp. | Humidity | Pressure | Rain* | Wind** | Luminosity | Snow |
|---|---|---|---|---|---|---|---|
| 1778006496 | 26.11° C | 37% | 1036.1 hPa | 0 mm | - | 760 W/m² | - |
| 1778005891 | 25.56° C | 37% | 1036.1 hPa | 0 mm | - | 681 W/m² | - |
| 1778005290 | 26.11° C | 38% | 1036.2 hPa | 0 mm | - | 291 W/m² | - |
| 1778004690 | 26.11° C | 39% | 1036.2 hPa | 0 mm | - | 702 W/m² | - |
| 1778004089 | 25.56° C | 38% | 1036.2 hPa | 0 mm | - | 661 W/m² | - |
| 1778003488 | 26.11° C | 38% | 1036.7 hPa | 0 mm | - | 672 W/m² | - |
| 1778002886 | 26.11° C | 39% | 1036.5 hPa | 0 mm | - | 163 W/m² | - |
| 1778002286 | 25.56° C | 39% | 1036.8 hPa | 0 mm | - | 757 W/m² | - |
| 1778001680 | 25.56° C | 40% | 1036.4 hPa | 0 mm | - | 735 W/m² | - |
| 1778001078 | 25° C | 40% | 1036.4 hPa | 0 mm | - | 527 W/m² | - |
| 1778000477 | 25.56° C | 41% | 1036.9 hPa | 0 mm | - | 727 W/m² | - |
| 1777999874 | 25° C | 42% | 1036.8 hPa | 0 mm | - | 735 W/m² | - |
| 1777999273 | 24.44° C | 43% | 1037 hPa | 0 mm | - | 605 W/m² | - |
| 1777998668 | 24.44° C | 43% | 1037 hPa | 0 mm | - | 600 W/m² | - |
| 1777998064 | 25° C | 43% | 1037.1 hPa | 0 mm | - | 604 W/m² | - |
| 1777997463 | 24.44° C | 47% | 1037.4 hPa | 0 mm | - | 682 W/m² | - |
| 1777996864 | 24.44° C | 44% | 1037.5 hPa | 0 mm | - | 569 W/m² | - |
| 1777996262 | 24.44° C | 44% | 1037.7 hPa | 0 mm | - | 677 W/m² | - |
| 1777995660 | 24.44° C | 43% | 1037.8 hPa | 0 mm | - | 647 W/m² | - |
| 1777995061 | 23.89° C | 44% | 1037.7 hPa | 0 mm | - | 601 W/m² | - |
| 1777994458 | 23.89° C | 45% | 1037.6 hPa | 0 mm | - | 628 W/m² | - |
| 1777993857 | 23.89° C | 45% | 1037.7 hPa | 0 mm | - | 623 W/m² | - |
| 1777993255 | 23.33° C | 47% | 1037.8 hPa | 0 mm | - | 570 W/m² | - |
| 1777992650 | 23.33° C | 45% | 1037.8 hPa | 0 mm | - | 609 W/m² | - |
| 1777992051 | 22.78° C | 46% | 1037.6 hPa | 0 mm | - | 588 W/m² | - |
* Rain latest hour (hover to see other rain measurements)
** Current wind speed in m/s (hover to see current wind gust speed)